SCOUT A DEB, 3213

Orbit data source: Space-Track

SCOUT A DEB, 3213 is space debris in LEO originally from a launch on Sat, 02 Mar 1968 UTC launched from the Air Force Western Test Range (AFWTR). Debris objects in space refer to the collection of defunct objects orbiting the Earth. Examples of debris include non-operational satellites, rocket bodies, and fragments generated from explosions, collisions, or faulty payload assembly.

Loading next visibility...
Identifier
3213, 1968-012C
Orbit
LEO
Last TLE update
2 days ago
Origin
Manufacturer
Unknown
Mission
Spacecraft
Bus & Motor
Unknown
Mass
Unknown
Launch date (UTC)
1968-03-02 (57 years ago)
Launch vehicle
Unknown
Launch site
Air Force Western Test Range (AFWTR)
Object type
Payload
Rocket body
Debris
Shape & HBR
Unknown
Radar Cross Section
Small (<0.1 m²)

Expand to show TLE details & history

TLE from 2 days ago
0 SCOUT A DEB
1 03213U 68012C   25184.27162074  .00000315  00000-0  25026-3 0  9992
2 03213  90.2252 105.4613 0051052 347.2305 169.2380 13.88989125562004
Epoch: 2025-07-03T06:31Z
TLE epoch observation values (Epoch: 2025-07-03T06:31:08.031Z)
Latitude
23.4413°
Longitude
-93.76578°
Altitude
971.794 km
Speed
7.349 km/s
True Right ascension
19h 02m 14s
True Declination
23° 19' 11"
Sunlit
Object was in full shadow at epoch
Visualization orbit readout
Latitude
57.07054°
Longitude
-93.45776°
Altitude
971.706 km
Speed
7.356 km/s
Apparent Right ascension
17h 57m 27s
Apparent Declination
13° 33' 33"
Sunlit
Object is in daylight
Visualization observer readout
Local Sidereal Time
05:03:45
Azimuth
343.99° N
Elevation
-35.086°
Doppler factor
1
Orbital elements
Apogee altitude
966.474 km
Perigee altitude
891.863 km
Semi-major axis
7,307.306 km
Eccentricity
0.00511
Inclination
90.2252°
RAAN
105.4613°
Arg. of periapsis
347.2305°
True anomaly
Unknown
Mean anomaly
169.238°
Eccentric anomaly
Unknown
Mean motion
3.47462 °/min
Orbital period
103.61 mins
BSTAR
0.00025026
Loading maneuver chart data...
Loading SW <> Apogee altitude chart data...
Loading historical data...
Loading historical data...
Loading historical data...
Loading historical data...
Loading historical data...
Loading historical data...
Loading historical data...

SCOUT A DEB Visibility forecast

Observer location: undefined°, undefined°

Span
Click to sort rows by Start time (UTC) header in descending order
Start Az.
Max El. time (UTC)
Max El. Az.
Max El.
End time (UTC)
End Az.
10 mins2025-07-05 18:23:26.268Z148.241° SSE2025-07-05 18:28:26.268Z79.831° E34.457°2025-07-05 18:33:26.268Z12.866° NNE
8 mins2025-07-05 20:08:26.268Z231.579° WSW2025-07-05 20:12:26.268Z283.583° WNW22.518°2025-07-05 20:16:26.268Z329.063° NNW
11 mins2025-07-06 06:58:26.268Z3.569° NNE2025-07-06 07:03:26.268Z144.262° SSE44.908°2025-07-06 07:09:26.268Z183.032° SSW
4 mins2025-07-06 08:44:26.268Z305.096° NW2025-07-06 08:45:26.268Z294.871° NW12.784°2025-07-06 08:48:26.268Z264.952° W
|